SCP
-0 0 -0 -0 0 0 0 0 0 0 0 0 0 0 0 0 0 0 0 0 0 0
0 -0 0 0 0 0 0 0 0 0 0 0 0 0 0 0 0 0 0 0 0 0
0 0 0 0 0 0 0 0 0 0 0 0 0 0 0 0 0 0 0 0 0 0
0 0 0 0 0 0 0 0 0 0 0 0 0 0 0 0 0 0 0 0 0 0
0 0 0 0 0 0 0 0 0 0 0 0 0 0 0 0 0 0 0 0 0 0
0 0 0 0 0 0 0 0 0 0 0 0 0 0 0 0 0 0 0 0 0 0
0 0 0 0 0 0 0 0 0 0 0 0 0 0 0 0 0 0 0 0 0 0
0 0 0 0 0 0 0 0 0 0 0 0 0 0 0 0 0 0 0 0 0 0
0 0 0 0 0 0 0 0 0 0 0 0 0 0 0 0 0 0 0 0 0 0
0 0 0 0 0 0 0 0 0 0 0 0 0 0 0 0 0 0 0 0 0 0
0 0 0 0 0 0 0 0 0 0 0 0 0 0 0 0 0 0 0 0 0 0
0 0 0 0 0 0 0 0 0 0 0 0 0 0 0 0 0 0 0 0 0 0
0 0 0 0 0 0 0 0 0 0 0 0 0 0 0 0 0 0 0 0 0 0
0 0 0 0 0 0 0 0 0 0 0 0 0 0 0 0 0 0 0 0 0 0
Wind_Speed_500mb
88 88 89 88 85 82 79 73 66 71 67 59 56 66 75 72 69 58 63 55 64 60
91 95 95 91 92 88 82 68 78 60 61 54 60 61 75 75 68 67 66 59 60 56
96 94 92 92 90 80 78 79 63 61 69 71 70 68 79 76 70 70 69 60 57 54
99 99 99 98 92 86 86 79 56 68 67 75 75 76 76 71 68 68 62 57 56 56
77 78 82 84 92 87 62 52 67 82 65 67 71 69 65 64 66 65 53 49 54 56
67 62 89 79 82 72 78 75 77 68 60 50 55 55 54 54 51 42 41 46 52 54
74 67 76 74 79 85 78 76 82 62 51 46 45 44 44 41 39 41 44 46 45 42
90 69 63 71 71 64 75 66 58 54 50 43 39 40 41 39 36 37 37 37 36 36
68 68 61 56 55 51 55 52 48 44 42 42 44 40 38 35 32 31 31 31 32 32
57 55 56 57 52 50 47 43 41 41 41 41 40 40 37 33 33 30 29 31 34 39
63 59 55 50 46 45 44 39 34 36 39 39 37 35 36 35 32 31 34 37 37 38
47 45 43 43 42 38 35 34 33 31 31 33 35 35 34 32 33 35 36 34 35 35
37 35 35 34 35 33 32 31 30 31 30 31 34 34 29 29 29 31 29 33 39 42
37 34 32 31 31 33 34 34 34 34 32 31 30 31 34 30 28 30 33 35 39 39
Wind_Direction_500mb
221 224 226 230 233 237 237 241 246 241 239 246 258 257 251 248 241 249 247 258 255 267
223 226 229 232 236 242 240 241 242 240 245 254 259 263 257 247 242 248 245 268 264 257
227 229 233 239 243 246 237 240 240 252 247 263 254 250 245 235 238 242 249 262 252 246
234 236 240 243 244 245 233 232 249 257 262 260 257 253 234 238 236 242 258 250 242 242
238 241 240 242 250 253 227 228 256 256 258 255 252 237 236 243 248 254 251 242 239 244
235 258 247 247 248 247 238 232 239 254 249 238 235 244 246 245 246 247 247 240 242 250
231 248 243 247 246 246 238 245 236 240 229 233 238 235 235 238 242 244 235 236 246 245
235 235 239 240 240 235 236 226 218 222 229 226 225 232 234 235 235 239 226 234 229 232
225 228 226 223 211 204 203 211 217 222 223 226 229 228 226 229 227 217 217 213 223 236
215 210 202 192 194 202 206 209 212 214 216 219 221 220 226 219 203 198 203 214 222 236
185 184 185 190 197 203 210 210 209 207 206 208 206 202 192 184 188 194 206 219 243 257
192 194 188 187 192 196 201 199 195 191 190 188 184 182 189 190 196 209 225 236 249 254
199 197 193 196 194 195 194 191 182 175 174 177 183 183 194 202 207 224 234 240 253 265
200 203 204 202 196 188 180 177 175 179 175 181 192 201 212 219 227 235 245 257 268 276
Wind_Speed_850mb
88 88 89 88 85 82 79 73 66 71 67 59 56 66 75 72 69 58 63 55 64 60
91 95 95 91 92 88 82 68 78 60 61 54 60 61 75 75 68 67 66 59 60 56
96 94 92 92 90 80 78 79 63 61 69 71 70 68 79 76 70 70 69 60 57 54
99 99 99 98 92 86 86 79 56 68 67 75 75 76 76 71 68 68 62 57 56 56
77 78 82 84 92 87 62 52 67 82 65 67 71 69 65 64 66 65 53 49 54 56
67 62 89 79 82 72 78 75 77 68 60 50 55 55 54 54 51 42 41 46 52 54
74 67 76 74 79 85 78 76 82 62 51 46 45 44 44 41 39 41 44 46 45 42
90 69 63 71 71 64 75 66 58 54 50 43 39 40 41 39 36 37 37 37 36 36
68 68 61 56 55 51 55 52 48 44 42 42 44 40 38 35 32 31 31 31 32 32
57 55 56 57 52 50 47 43 41 41 41 41 40 40 37 33 33 30 29 31 34 39
63 59 55 50 46 45 44 39 34 36 39 39 37 35 36 35 32 31 34 37 37 38
47 45 43 43 42 38 35 34 33 31 31 33 35 35 34 32 33 35 36 34 35 35
37 35 35 34 35 33 32 31 30 31 30 31 34 34 29 29 29 31 29 33 39 42
37 34 32 31 31 33 34 34 34 34 32 31 30 31 34 30 28 30 33 35 39 39
Wind_Direction_850mb
221 224 226 230 233 237 237 241 246 241 239 246 258 257 251 248 241 249 247 258 255 267
223 226 229 232 236 242 240 241 242 240 245 254 259 263 257 247 242 248 245 268 264 257
227 229 233 239 243 246 237 240 240 252 247 263 254 250 245 235 238 242 249 262 252 246
234 236 240 243 244 245 233 232 249 257 262 260 257 253 234 238 236 242 258 250 242 242
238 241 240 242 250 253 227 228 256 256 258 255 252 237 236 243 248 254 251 242 239 244
235 258 247 247 248 247 238 232 239 254 249 238 235 244 246 245 246 247 247 240 242 250
231 248 243 247 246 246 238 245 236 240 229 233 238 235 235 238 242 244 235 236 246 245
235 235 239 240 240 235 236 226 218 222 229 226 225 232 234 235 235 239 226 234 229 232
225 228 226 223 211 204 203 211 217 222 223 226 229 228 226 229 227 217 217 213 223 236
215 210 202 192 194 202 206 209 212 214 216 219 221 220 226 219 203 198 203 214 222 236
185 184 185 190 197 203 210 210 209 207 206 208 206 202 192 184 188 194 206 219 243 257
192 194 188 187 192 196 201 199 195 191 190 188 184 182 189 190 196 209 225 236 249 254
199 197 193 196 194 195 194 191 182 175 174 177 183 183 194 202 207 224 234 240 253 265
200 203 204 202 196 188 180 177 175 179 175 181 192 201 212 219 227 235 245 257 268 276